Time,TemperatureF,DewpointF,PressureIn,WindDirection,WindDirectionDegrees,WindSpeedMPH,WindSpeedGustMPH,Humidity,HourlyPrecipIn,Conditions,Clouds,dailyrainin,SolarRadiationWatts/m^2,SoftwareType,DateUTC
2013-08-02 00:01:00,67.6,59.0,29.88,West,269,0.0,1.0,74,0.00,,,0.00,0.0,meteohub,2013-08-02 05:01:00,
2013-08-02 00:07:00,67.6,59.0,29.88,West,269,0.0,1.0,74,0.00,,,0.00,0.0,meteohub,2013-08-02 05:07:00,
2013-08-02 00:13:00,67.6,59.0,29.87,West,269,0.0,1.0,74,0.00,,,0.00,0.0,meteohub,2013-08-02 05:13:00,
2013-08-02 00:19:00,67.5,59.2,29.88,West,269,0.0,1.0,75,0.00,,,0.00,0.0,meteohub,2013-08-02 05:19:00,
2013-08-02 00:26:00,67.3,59.5,29.87,West,269,0.0,1.0,76,0.00,,,0.00,0.0,meteohub,2013-08-02 05:26:00,
2013-08-02 00:32:00,66.9,59.5,29.87,West,269,0.0,1.0,77,0.00,,,0.00,0.0,meteohub,2013-08-02 05:32:00,
2013-08-02 00:38:00,66.7,59.7,29.87,West,269,0.0,1.0,78,0.00,,,0.00,0.0,meteohub,2013-08-02 05:38:00,
2013-08-02 00:44:00,66.6,59.5,29.87,West,269,0.0,1.0,78,0.00,,,0.00,0.0,meteohub,2013-08-02 05:44:00,
2013-08-02 00:50:00,66.4,59.7,29.87,West,269,0.0,1.0,79,0.00,,,0.00,0.0,meteohub,2013-08-02 05:50:00,
2013-08-02 00:56:00,66.0,59.7,29.87,West,269,0.0,1.0,80,0.00,,,0.00,0.0,meteohub,2013-08-02 05:56:00,
2013-08-02 01:02:00,66.0,59.7,29.87,West,269,0.0,3.0,80,0.00,,,0.00,0.0,meteohub,2013-08-02 06:02:00,
2013-08-02 01:09:00,65.8,59.5,29.87,West,273,0.0,3.0,80,0.00,,,0.00,0.0,meteohub,2013-08-02 06:09:00,
2013-08-02 01:15:00,65.5,59.5,29.86,West,277,0.0,3.0,81,0.00,,,0.00,0.0,meteohub,2013-08-02 06:15:00,
2013-08-02 01:21:00,65.3,59.4,29.86,West,279,0.0,1.0,81,0.00,,,0.00,0.0,meteohub,2013-08-02 06:21:00,
2013-08-02 01:27:00,65.1,59.5,29.86,West,279,0.0,1.0,82,0.00,,,0.00,0.0,meteohub,2013-08-02 06:27:00,
2013-08-02 01:33:00,64.8,59.2,29.86,West,279,0.0,1.0,82,0.00,,,0.00,0.0,meteohub,2013-08-02 06:33:00,
2013-08-02 01:39:00,64.6,59.0,29.86,West,279,0.0,0.0,82,0.00,,,0.00,0.0,meteohub,2013-08-02 06:39:00,
2013-08-02 01:45:00,64.2,59.0,29.86,West,279,0.0,0.0,83,0.00,,,0.00,0.0,meteohub,2013-08-02 06:45:00,
2013-08-02 01:52:00,63.9,58.6,29.86,West,279,0.0,0.0,83,0.00,,,0.00,0.0,meteohub,2013-08-02 06:52:00,
2013-08-02 01:58:00,63.7,58.8,29.87,West,279,0.0,0.0,84,0.00,,,0.00,0.0,meteohub,2013-08-02 06:58:00,
2013-08-02 02:04:00,63.5,58.6,29.88,West,279,0.0,0.0,84,0.00,,,0.00,0.0,meteohub,2013-08-02 07:04:00,
2013-08-02 02:10:00,63.3,58.5,29.88,West,279,0.0,2.0,84,0.00,,,0.00,0.0,meteohub,2013-08-02 07:10:00,
2013-08-02 02:17:00,63.1,58.6,29.88,West,279,0.0,2.0,85,0.00,,,0.00,0.0,meteohub,2013-08-02 07:17:00,
2013-08-02 02:23:00,63.1,58.6,29.87,West,279,0.0,2.0,85,0.00,,,0.00,0.0,meteohub,2013-08-02 07:23:00,
2013-08-02 02:29:00,62.8,58.5,29.87,West,279,0.0,1.0,86,0.00,,,0.00,0.0,meteohub,2013-08-02 07:29:00,
2013-08-02 02:35:00,62.4,58.1,29.87,West,279,0.0,1.0,86,0.00,,,0.00,0.0,meteohub,2013-08-02 07:35:00,
2013-08-02 02:41:00,62.4,58.1,29.87,West,279,0.0,1.0,86,0.00,,,0.00,0.0,meteohub,2013-08-02 07:41:00,
2013-08-02 02:47:00,62.4,57.9,29.88,West,277,0.0,1.0,85,0.00,,,0.00,0.0,meteohub,2013-08-02 07:47:00,
2013-08-02 02:53:00,62.4,57.9,29.88,West,277,0.0,2.0,85,0.00,,,0.00,0.0,meteohub,2013-08-02 07:53:00,
2013-08-02 02:59:00,62.8,57.9,29.88,West,276,0.0,2.0,84,0.00,,,0.00,0.0,meteohub,2013-08-02 07:59:00,
2013-08-02 03:06:00,63.0,58.1,29.88,West,274,0.0,3.0,84,0.00,,,0.00,0.0,meteohub,2013-08-02 08:06:00,
2013-08-02 03:12:00,63.0,57.7,29.88,West,274,0.0,3.0,83,0.00,,,0.00,0.0,meteohub,2013-08-02 08:12:00,
2013-08-02 03:18:00,63.0,57.7,29.88,WNW,290,0.0,3.0,83,0.00,,,0.00,0.0,meteohub,2013-08-02 08:18:00,
2013-08-02 03:24:00,62.8,57.6,29.88,West,274,0.0,2.0,83,0.00,,,0.00,0.0,meteohub,2013-08-02 08:24:00,
2013-08-02 03:30:00,62.6,58.1,29.88,West,280,1.0,3.0,85,0.00,,,0.00,0.0,meteohub,2013-08-02 08:30:00,
2013-08-02 03:36:00,62.4,57.2,29.88,North,5,2.0,3.0,83,0.00,,,0.00,0.0,meteohub,2013-08-02 08:36:00,
2013-08-02 03:42:00,62.4,57.2,29.88,West,278,0.0,4.0,83,0.00,,,0.00,0.0,meteohub,2013-08-02 08:42:00,
2013-08-02 03:49:00,62.2,57.0,29.89,NW,316,1.0,4.0,83,0.00,,,0.00,0.0,meteohub,2013-08-02 08:49:00,
2013-08-02 03:55:00,62.2,57.0,29.89,NW,321,1.0,4.0,83,0.00,,,0.00,0.0,meteohub,2013-08-02 08:55:00,
2013-08-02 04:01:00,62.2,56.7,29.89,NW,323,0.0,2.0,82,0.00,,,0.00,0.0,meteohub,2013-08-02 09:01:00,
2013-08-02 04:07:00,62.2,56.7,29.89,NNW,330,1.0,2.0,82,0.00,,,0.00,0.0,meteohub,2013-08-02 09:07:00,
2013-08-02 04:13:00,62.1,56.8,29.89,NNW,335,0.0,3.0,83,0.00,,,0.00,0.0,meteohub,2013-08-02 09:13:00,
2013-08-02 04:19:00,61.9,56.7,29.89,NNW,338,0.0,4.0,83,0.00,,,0.00,0.0,meteohub,2013-08-02 09:19:00,
2013-08-02 04:26:00,61.5,56.3,29.90,NNW,338,1.0,4.0,83,0.00,,,0.00,0.0,meteohub,2013-08-02 09:26:00,
2013-08-02 04:32:00,61.5,56.3,29.90,NNW,343,0.0,3.0,83,0.00,,,0.00,0.0,meteohub,2013-08-02 09:32:00,
2013-08-02 04:38:00,61.3,56.5,29.89,North,9,0.0,4.0,84,0.00,,,0.00,0.0,meteohub,2013-08-02 09:38:00,
2013-08-02 04:44:00,61.3,56.5,29.89,North,9,0.0,4.0,84,0.00,,,0.00,0.0,meteohub,2013-08-02 09:44:00,
2013-08-02 04:50:00,61.2,56.3,29.90,North,9,0.0,4.0,84,0.00,,,0.00,0.0,meteohub,2013-08-02 09:50:00,
2013-08-02 04:56:00,61.0,56.1,29.90,North,9,0.0,1.0,84,0.00,,,0.00,0.0,meteohub,2013-08-02 09:56:00,
2013-08-02 05:02:00,60.8,56.3,29.90,North,9,0.0,1.0,85,0.00,,,0.00,0.0,meteohub,2013-08-02 10:02:00,
2013-08-02 05:08:00,60.6,56.1,29.90,North,9,0.0,1.0,85,0.00,,,0.00,0.0,meteohub,2013-08-02 10:08:00,
2013-08-02 05:15:00,60.3,56.1,29.91,North,9,0.0,1.0,86,0.00,,,0.00,0.0,meteohub,2013-08-02 10:15:00,
2013-08-02 05:21:00,60.1,55.9,29.91,North,9,0.0,1.0,86,0.00,,,0.00,0.0,meteohub,2013-08-02 10:21:00,
2013-08-02 05:27:00,59.7,55.8,29.91,North,9,0.0,1.0,87,0.00,,,0.00,0.0,meteohub,2013-08-02 10:27:00,
2013-08-02 05:34:00,59.5,55.6,29.91,North,9,0.0,0.0,87,0.00,,,0.00,0.0,meteohub,2013-08-02 10:34:00,
2013-08-02 05:40:00,59.4,55.4,29.91,North,9,0.0,0.0,87,0.00,,,0.00,0.0,meteohub,2013-08-02 10:40:00,
2013-08-02 05:46:00,59.2,55.6,29.91,North,9,0.0,2.0,88,0.00,,,0.00,0.0,meteohub,2013-08-02 10:46:00,
2013-08-02 05:52:00,59.0,55.4,29.92,North,9,0.0,2.0,88,0.00,,,0.00,0.0,meteohub,2013-08-02 10:52:00,
2013-08-02 05:58:00,58.8,55.2,29.92,North,10,1.0,2.0,88,0.00,,,0.00,5.0,meteohub,2013-08-02 10:58:00,
2013-08-02 06:05:00,58.8,55.2,29.92,North,355,0.0,5.0,88,0.00,,,0.00,7.0,meteohub,2013-08-02 11:05:00,
2013-08-02 06:11:00,58.8,55.2,29.93,North,355,0.0,5.0,88,0.00,,,0.00,11.0,meteohub,2013-08-02 11:11:00,
2013-08-02 06:17:00,58.8,55.2,29.92,North,355,0.0,2.0,88,0.00,,,0.00,12.0,meteohub,2013-08-02 11:17:00,
2013-08-02 06:23:00,58.6,55.0,29.92,North,355,0.0,1.0,88,0.00,,,0.00,14.0,meteohub,2013-08-02 11:23:00,
2013-08-02 06:30:00,58.6,55.4,29.92,North,355,0.0,2.0,89,0.00,,,0.00,16.0,meteohub,2013-08-02 11:30:00,
2013-08-02 06:36:00,58.6,55.4,29.92,North,355,0.0,2.0,89,0.00,,,0.00,19.0,meteohub,2013-08-02 11:36:00,
2013-08-02 06:42:00,58.6,55.4,29.93,North,355,0.0,1.0,89,0.00,,,0.00,21.0,meteohub,2013-08-02 11:42:00,
2013-08-02 06:49:00,58.6,55.4,29.93,North,355,0.0,1.0,89,0.00,,,0.00,23.0,meteohub,2013-08-02 11:49:00,
2013-08-02 06:55:00,59.0,55.8,29.93,North,355,0.0,2.0,89,0.00,,,0.00,35.0,meteohub,2013-08-02 11:55:00,
2013-08-02 07:01:00,59.5,56.3,29.93,North,355,0.0,2.0,89,0.00,,,0.00,42.0,meteohub,2013-08-02 12:01:00,
2013-08-02 07:07:00,60.1,56.1,29.93,North,355,0.0,3.0,87,0.00,,,0.00,35.0,meteohub,2013-08-02 12:07:00,
2013-08-02 07:13:00,60.4,56.5,29.93,North,355,2.0,3.0,87,0.00,,,0.00,28.0,meteohub,2013-08-02 12:13:00,
2013-08-02 07:20:00,61.0,56.8,29.93,North,355,0.0,3.0,86,0.00,,,0.00,35.0,meteohub,2013-08-02 12:20:00,
2013-08-02 07:26:00,61.3,56.8,29.93,North,355,0.0,6.0,85,0.00,,,0.00,39.0,meteohub,2013-08-02 12:26:00,
2013-08-02 07:32:00,61.5,57.0,29.93,North,355,0.0,6.0,85,0.00,,,0.00,37.0,meteohub,2013-08-02 12:32:00,
2013-08-02 07:38:00,61.9,57.0,29.93,North,355,0.0,3.0,84,0.00,,,0.00,37.0,meteohub,2013-08-02 12:38:00,
2013-08-02 07:44:00,62.2,57.4,29.93,North,355,0.0,5.0,84,0.00,,,0.00,37.0,meteohub,2013-08-02 12:44:00,
2013-08-02 07:50:00,62.8,57.6,29.93,North,0,1.0,5.0,83,0.00,,,0.00,40.0,meteohub,2013-08-02 12:50:00,
2013-08-02 07:57:00,63.0,57.7,29.93,North,5,2.0,5.0,83,0.00,,,0.00,47.0,meteohub,2013-08-02 12:57:00,
2013-08-02 08:03:00,63.3,57.7,29.93,NNE,15,2.0,5.0,82,0.00,,,0.00,169.0,meteohub,2013-08-02 13:03:00,
2013-08-02 08:09:00,64.0,58.1,29.93,NW,323,1.0,5.0,81,0.00,,,0.00,315.0,meteohub,2013-08-02 13:09:00,
2013-08-02 08:15:00,65.1,58.8,29.93,North,0,3.0,5.0,80,0.00,,,0.00,287.0,meteohub,2013-08-02 13:15:00,
2013-08-02 08:22:00,65.8,58.8,29.93,North,5,4.0,8.0,78,0.00,,,0.00,367.0,meteohub,2013-08-02 13:22:00,
2013-08-02 08:28:00,66.4,58.6,29.93,NE,39,0.0,8.0,76,0.00,,,0.00,383.0,meteohub,2013-08-02 13:28:00,
2013-08-02 08:34:00,66.9,59.2,29.93,North,5,1.0,6.0,76,0.00,,,0.00,308.0,meteohub,2013-08-02 13:34:00,
2013-08-02 08:40:00,67.6,59.4,29.93,NNE,19,0.0,6.0,75,0.00,,,0.00,410.0,meteohub,2013-08-02 13:40:00,
2013-08-02 08:46:00,68.4,59.4,29.94,West,277,0.0,5.0,73,0.00,,,0.00,434.0,meteohub,2013-08-02 13:46:00,
2013-08-02 08:53:00,69.3,59.9,29.94,North,355,4.0,4.0,72,0.00,,,0.00,452.0,meteohub,2013-08-02 13:53:00,
2013-08-02 08:59:00,69.3,59.5,29.94,North,0,1.0,5.0,71,0.00,,,0.00,503.0,meteohub,2013-08-02 13:59:00,
2013-08-02 09:05:00,69.4,59.2,29.93,NNE,18,4.0,5.0,70,0.00,,,0.00,522.0,meteohub,2013-08-02 14:05:00,
2013-08-02 09:12:00,69.6,59.4,29.93,NNW,338,5.0,6.0,70,0.00,,,0.00,404.0,meteohub,2013-08-02 14:12:00,
2013-08-02 09:17:00,69.6,59.0,29.93,North,355,1.0,7.0,69,0.00,,,0.00,408.0,meteohub,2013-08-02 14:17:00,
2013-08-02 09:24:00,69.6,58.6,29.93,North,355,0.0,8.0,68,0.00,,,0.00,526.0,meteohub,2013-08-02 14:24:00,
2013-08-02 09:30:00,70.0,59.0,29.93,NNE,13,1.0,8.0,68,0.00,,,0.00,605.0,meteohub,2013-08-02 14:30:00,
2013-08-02 09:36:00,70.3,58.1,29.93,NNE,22,3.0,8.0,65,0.00,,,0.00,480.0,meteohub,2013-08-02 14:36:00,
2013-08-02 09:42:00,70.3,58.5,29.93,NNW,331,4.0,8.0,66,0.00,,,0.00,366.0,meteohub,2013-08-02 14:42:00,
2013-08-02 09:48:00,70.2,57.9,29.93,North,5,3.0,8.0,65,0.00,,,0.00,580.0,meteohub,2013-08-02 14:48:00,
2013-08-02 09:55:00,70.3,58.5,29.94,NNW,344,6.0,9.0,66,0.00,,,0.00,643.0,meteohub,2013-08-02 14:55:00,
2013-08-02 10:01:00,70.5,57.7,29.94,WNW,286,1.0,9.0,64,0.00,,,0.00,536.0,meteohub,2013-08-02 15:01:00,
2013-08-02 10:07:00,70.9,59.4,29.94,NNE,32,1.0,8.0,67,0.00,,,0.00,613.0,meteohub,2013-08-02 15:07:00,
2013-08-02 10:13:00,71.1,58.3,29.93,NE,46,5.0,8.0,64,0.00,,,0.00,754.0,meteohub,2013-08-02 15:13:00,
2013-08-02 10:19:00,71.1,57.4,29.93,NNW,327,5.0,7.0,62,0.00,,,0.00,585.0,meteohub,2013-08-02 15:19:00,
2013-08-02 10:26:00,71.1,57.4,29.93,NNW,345,2.0,8.0,62,0.00,,,0.00,564.0,meteohub,2013-08-02 15:26:00,
2013-08-02 10:31:00,71.2,57.6,29.93,NNE,32,1.0,10.0,62,0.00,,,0.00,575.0,meteohub,2013-08-02 15:31:00,
2013-08-02 10:38:00,71.1,57.7,29.94,NNE,13,3.0,11.0,63,0.00,,,0.00,568.0,meteohub,2013-08-02 15:38:00,
2013-08-02 10:44:00,71.1,57.4,29.94,NE,52,5.0,11.0,62,0.00,,,0.00,717.0,meteohub,2013-08-02 15:44:00,
2013-08-02 10:50:00,71.6,57.9,29.93,NNW,344,1.0,7.0,62,0.00,,,0.00,773.0,meteohub,2013-08-02 15:50:00,
2013-08-02 10:56:00,71.8,57.6,29.93,NW,323,6.0,8.0,61,0.00,,,0.00,591.0,meteohub,2013-08-02 15:56:00,
2013-08-02 11:02:00,71.8,58.5,29.94,North,9,1.0,8.0,63,0.00,,,0.00,533.0,meteohub,2013-08-02 16:02:00,
2013-08-02 11:07:00,71.6,57.9,29.94,NNE,15,2.0,8.0,62,0.00,,,0.00,550.0,meteohub,2013-08-02 16:07:00,
2013-08-02 11:13:00,71.6,58.3,29.94,North,5,0.0,6.0,63,0.00,,,0.00,654.0,meteohub,2013-08-02 16:13:00,
2013-08-02 11:19:00,71.8,58.1,29.94,ENE,59,2.0,6.0,62,0.00,,,0.00,598.0,meteohub,2013-08-02 16:19:00,
2013-08-02 11:25:00,72.1,58.8,29.94,NE,49,2.0,6.0,63,0.00,,,0.00,573.0,meteohub,2013-08-02 16:25:00,
2013-08-02 11:31:00,72.0,57.4,29.95,NE,51,2.0,10.0,60,0.00,,,0.00,613.0,meteohub,2013-08-02 16:31:00,
2013-08-02 11:37:00,72.1,55.6,29.94,ENE,62,3.0,10.0,56,0.00,,,0.00,647.0,meteohub,2013-08-02 16:37:00,
2013-08-02 11:43:00,72.7,56.5,29.94,North,349,4.0,10.0,57,0.00,,,0.00,677.0,meteohub,2013-08-02 16:43:00,
2013-08-02 11:50:00,72.9,56.3,29.94,North,5,4.0,10.0,56,0.00,,,0.00,670.0,meteohub,2013-08-02 16:50:00,
2013-08-02 11:56:00,72.9,55.2,29.94,ENE,57,2.0,10.0,54,0.00,,,0.00,696.0,meteohub,2013-08-02 16:56:00,
2013-08-02 12:02:00,72.9,55.8,29.94,North,0,3.0,8.0,55,0.00,,,0.00,793.0,meteohub,2013-08-02 17:02:00,
2013-08-02 12:08:00,73.0,54.3,29.94,NNE,18,5.0,8.0,52,0.00,,,0.00,886.0,meteohub,2013-08-02 17:08:00,
2013-08-02 12:14:00,73.0,54.9,29.94,NNW,341,2.0,8.0,53,0.00,,,0.00,881.0,meteohub,2013-08-02 17:14:00,
2013-08-02 12:21:00,73.0,55.4,29.94,NNW,337,2.0,9.0,54,0.00,,,0.00,468.0,meteohub,2013-08-02 17:21:00,
2013-08-02 12:27:00,73.0,55.4,29.94,NNW,327,6.0,9.0,54,0.00,,,0.00,700.0,meteohub,2013-08-02 17:27:00,
2013-08-02 12:33:00,72.9,56.7,29.95,NNW,340,2.0,9.0,57,0.00,,,0.00,677.0,meteohub,2013-08-02 17:33:00,
2013-08-02 12:39:00,73.4,55.8,29.94,NNE,19,2.0,8.0,54,0.00,,,0.00,664.0,meteohub,2013-08-02 17:39:00,
2013-08-02 12:45:00,73.4,56.7,29.94,NW,325,2.0,8.0,56,0.00,,,0.00,708.0,meteohub,2013-08-02 17:45:00,
2013-08-02 12:51:00,73.6,57.4,29.94,NE,56,0.0,8.0,57,0.00,,,0.00,729.0,meteohub,2013-08-02 17:51:00,
2013-08-02 12:58:00,73.9,58.3,29.94,NW,311,2.0,8.0,58,0.00,,,0.00,675.0,meteohub,2013-08-02 17:58:00,
2013-08-02 13:04:00,73.9,57.7,29.94,NE,36,4.0,8.0,57,0.00,,,0.00,580.0,meteohub,2013-08-02 18:04:00,
2013-08-02 13:10:00,73.2,56.1,29.94,NE,49,1.0,9.0,55,0.00,,,0.00,724.0,meteohub,2013-08-02 18:10:00,
2013-08-02 13:16:00,73.8,58.5,29.94,NNE,19,2.0,9.0,59,0.00,,,0.00,712.0,meteohub,2013-08-02 18:16:00,
2013-08-02 13:22:00,74.3,57.0,29.94,NNE,16,4.0,9.0,55,0.00,,,0.00,789.0,meteohub,2013-08-02 18:22:00,
2013-08-02 13:28:00,74.5,57.2,29.94,WSW,247,2.0,9.0,55,0.00,,,0.00,682.0,meteohub,2013-08-02 18:28:00,
2013-08-02 13:35:00,74.8,56.5,29.94,North,5,2.0,9.0,53,0.00,,,0.00,617.0,meteohub,2013-08-02 18:35:00,
2013-08-02 13:41:00,74.1,54.9,29.94,North,5,3.0,9.0,51,0.00,,,0.00,550.0,meteohub,2013-08-02 18:41:00,
2013-08-02 13:47:00,73.9,56.3,29.94,NNE,19,3.0,9.0,54,0.00,,,0.00,568.0,meteohub,2013-08-02 18:47:00,
2013-08-02 13:53:00,73.9,56.8,29.94,ESE,109,0.0,9.0,55,0.00,,,0.00,504.0,meteohub,2013-08-02 18:53:00,
2013-08-02 13:59:00,73.8,56.1,29.94,North,355,5.0,7.0,54,0.00,,,0.00,512.0,meteohub,2013-08-02 18:59:00,
2013-08-02 14:05:00,74.1,56.5,29.95,NNE,23,0.0,9.0,54,0.00,,,0.00,534.0,meteohub,2013-08-02 19:05:00,
2013-08-02 14:12:00,74.5,55.2,29.95,NNW,342,1.0,9.0,51,0.00,,,0.00,526.0,meteohub,2013-08-02 19:12:00,
2013-08-02 14:18:00,74.8,55.6,29.95,North,355,6.0,6.0,51,0.00,,,0.00,687.0,meteohub,2013-08-02 19:18:00,
2013-08-02 14:24:00,75.2,56.3,29.95,NNW,346,5.0,9.0,52,0.00,,,0.00,960.0,meteohub,2013-08-02 19:24:00,
2013-08-02 14:30:00,75.9,56.5,29.95,North,5,2.0,9.0,51,0.00,,,0.00,963.0,meteohub,2013-08-02 19:30:00,
2013-08-02 14:36:00,76.6,54.9,29.95,NE,42,1.0,9.0,47,0.00,,,0.00,981.0,meteohub,2013-08-02 19:36:00,
2013-08-02 14:42:00,76.3,55.2,29.95,NE,56,1.0,9.0,48,0.00,,,0.00,589.0,meteohub,2013-08-02 19:42:00,
2013-08-02 14:48:00,74.8,55.6,29.96,NE,44,3.0,9.0,51,0.00,,,0.00,374.0,meteohub,2013-08-02 19:48:00,
2013-08-02 14:55:00,74.7,56.5,29.95,NNW,338,1.0,9.0,53,0.00,,,0.00,394.0,meteohub,2013-08-02 19:55:00,
2013-08-02 15:01:00,74.1,53.8,29.95,North,355,3.0,8.0,49,0.00,,,0.00,434.0,meteohub,2013-08-02 20:01:00,
2013-08-02 15:07:00,74.1,54.9,29.95,NE,34,1.0,8.0,51,0.00,,,0.00,654.0,meteohub,2013-08-02 20:07:00,
2013-08-02 15:13:00,74.1,54.9,29.95,NNW,336,0.0,8.0,51,0.00,,,0.00,366.0,meteohub,2013-08-02 20:13:00,
2013-08-02 15:19:00,74.1,54.9,29.96,North,5,4.0,7.0,51,0.00,,,0.00,473.0,meteohub,2013-08-02 20:19:00,
2013-08-02 15:26:00,74.3,52.7,29.96,SSW,209,1.0,7.0,47,0.00,,,0.00,659.0,meteohub,2013-08-02 20:26:00,
2013-08-02 15:32:00,74.8,52.7,29.95,NNE,31,3.0,8.0,46,0.00,,,0.00,425.0,meteohub,2013-08-02 20:32:00,
2013-08-02 15:38:00,74.8,52.7,29.95,NNW,331,1.0,8.0,46,0.00,,,0.00,392.0,meteohub,2013-08-02 20:38:00,
2013-08-02 15:44:00,74.8,55.0,29.96,NNW,344,1.0,5.0,50,0.00,,,0.00,504.0,meteohub,2013-08-02 20:44:00,
2013-08-02 15:50:00,75.0,52.9,29.96,North,355,2.0,7.0,46,0.00,,,0.00,526.0,meteohub,2013-08-02 20:50:00,
2013-08-02 15:57:00,74.8,52.7,29.95,NW,319,0.0,7.0,46,0.00,,,0.00,404.0,meteohub,2013-08-02 20:57:00,
2013-08-02 16:03:00,74.7,54.3,29.96,North,9,2.0,7.0,49,0.00,,,0.00,413.0,meteohub,2013-08-02 21:03:00,
2013-08-02 16:09:00,74.1,53.8,29.96,NNW,329,1.0,8.0,49,0.00,,,0.00,404.0,meteohub,2013-08-02 21:09:00,
2013-08-02 16:15:00,73.8,52.9,29.96,NE,52,5.0,8.0,48,0.00,,,0.00,352.0,meteohub,2013-08-02 21:15:00,
2013-08-02 16:22:00,73.2,52.9,29.96,NE,49,5.0,9.0,49,0.00,,,0.00,352.0,meteohub,2013-08-02 21:22:00,
2013-08-02 16:28:00,73.2,54.5,29.96,WNW,294,1.0,9.0,52,0.00,,,0.00,325.0,meteohub,2013-08-02 21:28:00,
2013-08-02 16:34:00,73.4,53.6,29.96,NE,41,2.0,9.0,50,0.00,,,0.00,338.0,meteohub,2013-08-02 21:34:00,
2013-08-02 16:40:00,73.4,52.0,29.96,North,350,3.0,8.0,47,0.00,,,0.00,336.0,meteohub,2013-08-02 21:40:00,
2013-08-02 16:46:00,73.2,52.3,29.96,NNW,339,1.0,10.0,48,0.00,,,0.00,297.0,meteohub,2013-08-02 21:46:00,
2013-08-02 16:52:00,73.0,52.2,29.96,North,350,4.0,10.0,48,0.00,,,0.00,302.0,meteohub,2013-08-02 21:52:00,
2013-08-02 16:59:00,72.9,52.5,29.96,NNE,29,0.0,8.0,49,0.00,,,0.00,399.0,meteohub,2013-08-02 21:59:00,
2013-08-02 17:05:00,73.0,51.6,29.96,NNE,28,1.0,8.0,47,0.00,,,0.00,348.0,meteohub,2013-08-02 22:05:00,
2013-08-02 17:11:00,73.2,53.4,29.96,North,355,1.0,5.0,50,0.00,,,0.00,381.0,meteohub,2013-08-02 22:11:00,
2013-08-02 17:17:00,73.4,53.6,29.96,NNE,27,1.0,7.0,50,0.00,,,0.00,316.0,meteohub,2013-08-02 22:17:00,
2013-08-02 17:23:00,73.2,51.8,29.96,NNW,340,6.0,7.0,47,0.00,,,0.00,376.0,meteohub,2013-08-02 22:23:00,
2013-08-02 17:29:00,73.9,52.5,29.96,NNW,348,2.0,7.0,47,0.00,,,0.00,587.0,meteohub,2013-08-02 22:29:00,
2013-08-02 17:35:00,74.7,54.3,29.96,North,355,2.0,7.0,49,0.00,,,0.00,434.0,meteohub,2013-08-02 22:35:00,
2013-08-02 17:42:00,74.8,52.7,29.96,NNE,31,6.0,7.0,46,0.00,,,0.00,445.0,meteohub,2013-08-02 22:42:00,
2013-08-02 17:48:00,74.8,52.2,29.96,NE,41,2.0,7.0,45,0.00,,,0.00,482.0,meteohub,2013-08-02 22:48:00,
2013-08-02 17:54:00,74.7,52.5,29.96,North,355,0.0,7.0,46,0.00,,,0.00,457.0,meteohub,2013-08-02 22:54:00,
2013-08-02 18:00:00,75.0,52.2,29.96,North,0,0.0,6.0,45,0.00,,,0.00,445.0,meteohub,2013-08-02 23:00:00,
2013-08-02 18:07:00,75.0,52.9,29.96,North,5,0.0,6.0,46,0.00,,,0.00,230.0,meteohub,2013-08-02 23:07:00,
2013-08-02 18:13:00,74.5,52.3,29.97,North,9,3.0,7.0,46,0.00,,,0.00,338.0,meteohub,2013-08-02 23:13:00,
2013-08-02 18:19:00,74.5,52.9,29.96,NNE,19,1.0,7.0,47,0.00,,,0.00,341.0,meteohub,2013-08-02 23:19:00,
2013-08-02 18:25:00,74.3,53.4,29.97,NE,36,0.0,7.0,48,0.00,,,0.00,229.0,meteohub,2013-08-02 23:25:00,
2013-08-02 18:31:00,73.9,53.1,29.97,ENE,71,2.0,4.0,48,0.00,,,0.00,369.0,meteohub,2013-08-02 23:31:00,
2013-08-02 18:37:00,73.8,52.9,29.97,NNE,25,1.0,4.0,48,0.00,,,0.00,153.0,meteohub,2013-08-02 23:37:00,
2013-08-02 18:44:00,73.8,52.3,29.97,NNE,19,0.0,5.0,47,0.00,,,0.00,374.0,meteohub,2013-08-02 23:44:00,
2013-08-02 18:50:00,73.8,52.3,29.97,NW,311,1.0,5.0,47,0.00,,,0.00,288.0,meteohub,2013-08-02 23:50:00,
2013-08-02 18:56:00,73.2,51.8,29.97,NNE,26,1.0,7.0,47,0.00,,,0.00,246.0,meteohub,2013-08-02 23:56:00,
2013-08-02 19:02:00,73.0,52.7,29.98,North,5,1.0,6.0,49,0.00,,,0.00,225.0,meteohub,2013-08-03 00:02:00,
2013-08-02 19:08:00,72.9,52.5,29.98,NNE,26,2.0,7.0,49,0.00,,,0.00,206.0,meteohub,2013-08-03 00:08:00,
2013-08-02 19:14:00,72.3,52.7,29.98,NNE,32,1.0,7.0,50,0.00,,,0.00,148.0,meteohub,2013-08-03 00:14:00,
2013-08-02 19:20:00,72.1,53.1,29.98,NE,35,1.0,8.0,51,0.00,,,0.00,37.0,meteohub,2013-08-03 00:20:00,
2013-08-02 19:26:00,72.1,53.1,29.98,North,355,0.0,8.0,51,0.00,,,0.00,33.0,meteohub,2013-08-03 00:26:00,
2013-08-02 19:32:00,72.0,53.4,29.98,North,350,0.0,6.0,52,0.00,,,0.00,30.0,meteohub,2013-08-03 00:32:00,
2013-08-02 19:37:00,71.8,53.8,29.98,North,0,0.0,6.0,53,0.00,,,0.00,28.0,meteohub,2013-08-03 00:37:00,
2013-08-02 19:43:00,71.4,53.4,29.99,NE,41,1.0,6.0,53,0.00,,,0.00,25.0,meteohub,2013-08-03 00:43:00,
2013-08-02 19:49:00,71.2,53.8,29.99,North,5,1.0,4.0,54,0.00,,,0.00,26.0,meteohub,2013-08-03 00:49:00,
2013-08-02 19:55:00,71.1,54.1,29.99,North,355,2.0,8.0,55,0.00,,,0.00,32.0,meteohub,2013-08-03 00:55:00,
2013-08-02 20:01:00,70.9,54.3,29.99,North,350,1.0,8.0,56,0.00,,,0.00,33.0,meteohub,2013-08-03 01:01:00,
2013-08-02 20:07:00,70.5,54.1,29.99,NNW,348,2.0,8.0,56,0.00,,,0.00,28.0,meteohub,2013-08-03 01:07:00,
2013-08-02 20:14:00,70.3,54.3,29.99,North,349,2.0,4.0,57,0.00,,,0.00,16.0,meteohub,2013-08-03 01:14:00,
2013-08-02 20:20:00,70.2,54.1,30.00,North,5,0.0,4.0,57,0.00,,,0.00,12.0,meteohub,2013-08-03 01:20:00,
2013-08-02 20:26:00,70.0,54.5,30.00,North,5,0.0,4.0,58,0.00,,,0.00,11.0,meteohub,2013-08-03 01:26:00,
2013-08-02 20:32:00,69.6,54.1,30.00,North,0,0.0,4.0,58,0.00,,,0.00,7.0,meteohub,2013-08-03 01:32:00,
2013-08-02 20:38:00,69.3,54.3,30.00,NNW,348,0.0,4.0,59,0.00,,,0.00,5.0,meteohub,2013-08-03 01:38:00,
2013-08-02 20:44:00,68.9,54.5,30.00,NNW,348,1.0,4.0,60,0.00,,,0.00,0.0,meteohub,2013-08-03 01:44:00,
2013-08-02 20:50:00,68.5,54.1,30.01,NNW,348,0.0,3.0,60,0.00,,,0.00,0.0,meteohub,2013-08-03 01:50:00,
2013-08-02 20:57:00,68.0,54.5,30.01,NNW,348,0.0,2.0,62,0.00,,,0.00,0.0,meteohub,2013-08-03 01:57:00,
2013-08-02 21:03:00,67.5,54.5,30.01,NNW,348,0.0,1.0,63,0.00,,,0.00,0.0,meteohub,2013-08-03 02:03:00,
2013-08-02 21:09:00,67.1,54.5,30.02,NNW,348,0.0,1.0,64,0.00,,,0.00,0.0,meteohub,2013-08-03 02:09:00,
2013-08-02 21:15:00,66.6,54.5,30.02,NNW,348,0.0,0.0,65,0.00,,,0.00,0.0,meteohub,2013-08-03 02:15:00,
2013-08-02 21:21:00,66.0,54.7,30.02,NNW,348,0.0,0.0,67,0.00,,,0.00,0.0,meteohub,2013-08-03 02:21:00,
2013-08-02 21:28:00,65.7,54.9,30.03,NNW,348,0.0,0.0,68,0.00,,,0.00,0.0,meteohub,2013-08-03 02:28:00,
2013-08-02 21:34:00,65.1,54.7,30.03,NNW,348,0.0,0.0,69,0.00,,,0.00,0.0,meteohub,2013-08-03 02:34:00,
2013-08-02 21:40:00,64.8,54.3,30.04,NNW,348,0.0,0.0,69,0.00,,,0.00,0.0,meteohub,2013-08-03 02:40:00,
2013-08-02 21:46:00,64.6,54.5,30.04,NNW,348,0.0,0.0,70,0.00,,,0.00,0.0,meteohub,2013-08-03 02:46:00,
2013-08-02 21:52:00,64.2,54.7,30.04,NNW,348,0.0,0.0,71,0.00,,,0.00,0.0,meteohub,2013-08-03 02:52:00,
2013-08-02 21:58:00,63.9,54.3,30.05,NNW,348,0.0,0.0,71,0.00,,,0.00,0.0,meteohub,2013-08-03 02:58:00,
2013-08-02 22:04:00,63.7,54.5,30.05,NNW,348,0.0,1.0,72,0.00,,,0.00,0.0,meteohub,2013-08-03 03:04:00,
2013-08-02 22:11:00,63.5,54.3,30.05,NNW,348,0.0,1.0,72,0.00,,,0.00,0.0,meteohub,2013-08-03 03:11:00,
2013-08-02 22:17:00,63.3,54.5,30.05,NNW,348,0.0,0.0,73,0.00,,,0.00,0.0,meteohub,2013-08-03 03:17:00,
2013-08-02 22:23:00,63.1,54.7,30.05,NNW,348,0.0,0.0,74,0.00,,,0.00,0.0,meteohub,2013-08-03 03:23:00,
2013-08-02 22:29:00,63.0,54.5,30.06,NNW,348,0.0,0.0,74,0.00,,,0.00,0.0,meteohub,2013-08-03 03:29:00,
2013-08-02 22:35:00,62.8,54.7,30.06,NNW,348,0.0,0.0,75,0.00,,,0.00,0.0,meteohub,2013-08-03 03:35:00,
2013-08-02 22:42:00,62.4,54.7,30.06,NNW,348,0.0,0.0,76,0.00,,,0.00,0.0,meteohub,2013-08-03 03:42:00,
2013-08-02 22:48:00,62.2,54.5,30.06,NNW,348,0.0,0.0,76,0.00,,,0.00,0.0,meteohub,2013-08-03 03:48:00,
2013-08-02 22:54:00,62.1,54.7,30.06,NNW,348,0.0,0.0,77,0.00,,,0.00,0.0,meteohub,2013-08-03 03:54:00,
2013-08-02 23:00:00,61.9,54.9,30.06,NNW,348,0.0,0.0,78,0.00,,,0.00,0.0,meteohub,2013-08-03 04:00:00,
2013-08-02 23:02:00,61.9,54.9,30.06,NNW,348,0.0,0.0,78,0.00,,,0.00,0.0,meteohub,2013-08-03 04:02:00,
2013-08-02 23:04:00,61.7,54.9,30.07,NNW,348,0.0,0.0,78,0.00,,,0.00,0.0,meteohub,2013-08-03 04:04:00,
2013-08-02 23:06:00,61.7,54.9,30.07,NNW,348,0.0,0.0,78,0.00,,,0.00,0.0,meteohub,2013-08-03 04:06:00,
2013-08-02 23:11:00,61.5,54.7,30.07,NNW,348,0.0,0.0,78,0.00,,,0.00,0.0,meteohub,2013-08-03 04:11:00,
2013-08-02 23:17:00,61.3,54.9,30.07,NNW,348,0.0,0.0,79,0.00,,,0.00,0.0,meteohub,2013-08-03 04:17:00,
2013-08-02 23:23:00,61.3,54.9,30.07,NNW,348,0.0,0.0,79,0.00,,,0.00,0.0,meteohub,2013-08-03 04:23:00,
2013-08-02 23:29:00,61.2,54.7,30.07,NNW,348,0.0,0.0,79,0.00,,,0.00,0.0,meteohub,2013-08-03 04:29:00,
2013-08-02 23:35:00,61.2,54.9,30.07,NNW,348,0.0,0.0,80,0.00,,,0.00,0.0,meteohub,2013-08-03 04:35:00,
2013-08-02 23:41:00,61.0,55.0,30.07,NNW,348,0.0,0.0,81,0.00,,,0.00,0.0,meteohub,2013-08-03 04:41:00,
2013-08-02 23:46:00,60.8,54.9,30.07,NNW,348,0.0,0.0,81,0.00,,,0.00,0.0,meteohub,2013-08-03 04:46:00,
2013-08-02 23:52:00,60.6,54.7,30.07,NNW,348,0.0,0.0,81,0.00,,,0.00,0.0,meteohub,2013-08-03 04:52:00,
2013-08-02 23:58:00,60.4,54.5,30.08,NNW,348,0.0,0.0,81,0.00,,,0.00,0.0,meteohub,2013-08-03 04:58:00,